| time (UTC) | temp C | wind direction | speed KPH | gust KPH | rain 1hr cm | rain 24hr cm | rain mn cm | humidity % | barometer mb |
| 20260505005933 | 16 | 112 | 0.0 | 0.0 | 0.00 | 0.00 | 0.00 | 54 | 1051.6 |
| 20260505004934 | 16 | 180 | 0.0 | 1.6 | 0.00 | 0.00 | 0.00 | 52 | 1051.5 |
| 20260505003935 | 17 | 337 | 0.0 | 0.0 | 0.00 | 0.00 | 0.00 | 50 | 1051.5 |
| 20260505002936 | 17 | 337 | 0.0 | 1.6 | 0.00 | 0.00 | 0.00 | 49 | 1051.5 |
| 20260505002834 | 17 | 337 | 0.0 | 3.2 | 0.00 | 0.00 | 0.00 | 48 | 1051.6 |
| 20260505001933 | 17 | 238 | 1.6 | 4.8 | 0.00 | 0.00 | 0.00 | 47 | 1051.5 |
| 20260505000933 | 18 | 171 | 1.6 | 4.8 | 0.00 | 0.00 | 0.00 | 45 | 1051.3 |
| 20260504235936 | 18 | 189 | 1.6 | 11.3 | 0.00 | 0.00 | 0.00 | 45 | 1051.3 |
| 20260504234935 | 19 | 197 | 0.0 | 1.6 | 0.00 | 0.00 | 0.00 | 44 | 1051.3 |
| 20260504233935 | 20 | 218 | 3.2 | 12.9 | 0.00 | 0.00 | 0.00 | 44 | 1051.3 |
| 20260504231933 | 20 | 20 | 0.0 | 0.0 | 0.00 | 0.00 | 0.00 | 43 | 1051.3 |
| 20260504231833 | 20 | 169 | 0.0 | 1.6 | 0.00 | 0.00 | 0.00 | 42 | 1051.4 |
| 20260504230835 | 20 | 217 | 0.0 | 4.8 | 0.00 | 0.00 | 0.00 | 41 | 1051.3 |
| 20260504225933 | 20 | 215 | 1.6 | 4.8 | 0.00 | 0.00 | 0.00 | 41 | 1051.3 |
| 20260504224934 | 20 | 130 | 1.6 | 4.8 | 0.00 | 0.00 | 0.00 | 39 | 1051.2 |
| 20260504224836 | 20 | 183 | 1.6 | 6.4 | 0.00 | 0.00 | 0.00 | 40 | 1051.1 |
| 20260504223837 | 21 | 43 | 1.6 | 4.8 | 0.00 | 0.00 | 0.00 | 39 | 1051.2 |
| 20260504223733 | 21 | 358 | 1.6 | 6.4 | 0.00 | 0.00 | 0.00 | 38 | 1051.1 |
| 20260504222737 | 22 | 57 | 3.2 | 6.4 | 0.00 | 0.00 | 0.00 | 36 | 1051.1 |
| 20260504221736 | 22 | 124 | 1.6 | 4.8 | 0.00 | 0.00 | 0.00 | 36 | 1051.1 |
| 20260504220833 | 23 | 136 | 3.2 | 14.5 | 0.00 | 0.00 | 0.00 | 34 | 1051.1 |
| 20260504220735 | 23 | 152 | 0.0 | 3.2 | 0.00 | 0.00 | 0.00 | 35 | 1051.1 |
| 20260504215834 | 23 | 189 | 0.0 | 1.6 | 0.00 | 0.00 | 0.00 | 33 | 1051.1 |
| 20260504214835 | 23 | 27 | 0.0 | 0.0 | 0.00 | 0.00 | 0.00 | 35 | 1051.0 |
| 20260504213834 | 23 | 89 | 0.0 | 3.2 | 0.00 | 0.00 | 0.00 | 35 | 1051.0 |
| 20260504212835 | 23 | 176 | 0.0 | 3.2 | 0.00 | 0.00 | 0.00 | 35 | 1051.0 |
| 20260504211933 | 23 | 327 | 0.0 | 3.2 | 0.00 | 0.00 | 0.00 | 33 | 1051.0 |
| 20260504210835 | 23 | 195 | 1.6 | 4.8 | 0.00 | 0.00 | 0.00 | 36 | 1051.1 |
| 20260504210735 | 23 | 226 | 6.4 | 11.3 | 0.00 | 0.00 | 0.00 | 36 | 1051.1 |
| 20260504205833 | 23 | 133 | 3.2 | 8.0 | 0.00 | 0.00 | 0.00 | 36 | 1050.9 |
| 20260504204834 | 23 | 129 | 3.2 | 9.7 | 0.00 | 0.00 | 0.00 | 35 | 1051.1 |
| 20260504203835 | 23 | 189 | 4.8 | 11.3 | 0.00 | 0.00 | 0.00 | 35 | 1051.3 |
| 20260504202833 | 23 | 142 | 3.2 | 8.0 | 0.00 | 0.00 | 0.00 | 33 | 1051.4 |
| 20260504201836 | 23 | 212 | 6.4 | 9.7 | 0.00 | 0.00 | 0.00 | 32 | 1051.4 |
| 20260504200834 | 23 | 178 | 1.6 | 8.0 | 0.00 | 0.00 | 0.00 | 33 | 1051.5 |
| 20260504200718 | 22 | 205 | 3.2 | 8.0 | 0.00 | 0.00 | 0.00 | 33 | 1051.5 |
| 20260504193734 | 22 | 221 | 8.0 | 12.9 | 0.00 | 0.00 | 0.00 | 34 | 1052.1 |
| 20260504192734 | 22 | 230 | 3.2 | 8.0 | 0.00 | 0.00 | 0.00 | 34 | 1052.2 |
| 20260504190736 | 22 | 232 | 8.0 | 12.9 | 0.00 | 0.00 | 0.00 | 34 | 1052.7 |
| 20260504185834 | 21 | 159 | 6.4 | 14.5 | 0.00 | 0.00 | 0.00 | 33 | 1052.7 |
| 20260504184834 | 21 | 223 | 9.7 | 17.7 | 0.00 | 0.00 | 0.00 | 34 | 1053.0 |
| 20260504183835 | 21 | 215 | 11.3 | 20.9 | 0.00 | 0.00 | 0.00 | 34 | 1053.1 |
| 20260504181834 | 22 | 231 | 6.4 | 12.9 | 0.00 | 0.00 | 0.00 | 34 | 1053.0 |
| 20260504181734 | 22 | 229 | 4.8 | 6.4 | 0.00 | 0.00 | 0.00 | 34 | 1053.1 |
| 20260504180733 | 21 | 186 | 3.2 | 4.8 | 0.00 | 0.00 | 0.00 | 35 | 1053.2 |
| 20260504174834 | 20 | 215 | 3.2 | 6.4 | 0.00 | 0.00 | 0.00 | 36 | 1053.6 |
| 20260504173835 | 20 | 217 | 6.4 | 12.9 | 0.00 | 0.00 | 0.00 | 36 | 1053.6 |
| 20260504172833 | 20 | 233 | 6.4 | 12.9 | 0.00 | 0.00 | 0.00 | 35 | 1053.9 |
| 20260504171932 | 21 | 210 | 11.3 | 20.9 | 0.00 | 0.00 | 0.00 | 34 | 1053.6 |
| 20260504170937 | 20 | 151 | 3.2 | 4.8 | 0.00 | 0.00 | 0.00 | 36 | 1054.0 |
| 20260504151033 | 17 | 204 | 4.8 | 11.3 | 0.00 | 0.00 | 0.00 | 39 | 1055.3 |
| 20260504141033 | 16 | 218 | 4.8 | 14.5 | 0.00 | 0.00 | 0.00 | 45 | 1055.7 |
| 20260504081536 | 1 | 202 | 0.0 | 0.0 | 0.00 | 0.00 | 0.00 | 87 | 1056.4 |
| 20260504044934 | 2 | 202 | 0.0 | 0.0 | 0.00 | 0.00 | 0.00 | 85 | 1056.7 |
| 20260504044833 | 2 | 202 | 0.0 | 0.0 | 0.00 | 0.00 | 0.00 | 84 | 1056.6 |
| 20260504043932 | 2 | 202 | 0.0 | 0.0 | 0.00 | 0.00 | 0.00 | 84 | 1056.7 |
| 20260504043832 | 2 | 202 | 0.0 | 0.0 | 0.00 | 0.00 | 0.00 | 84 | 1056.7 |
| 20260504042833 | 2 | 202 | 0.0 | 0.0 | 0.00 | 0.00 | 0.00 | 83 | 1056.8 |
| 20260504041834 | 2 | 202 | 0.0 | 0.0 | 0.00 | 0.00 | 0.00 | 83 | 1056.6 |
| 20260504040917 | 2 | 202 | 0.0 | 0.0 | 0.00 | 0.00 | 0.00 | 84 | 1056.5 |
| 20260504040833 | 2 | 202 | 0.0 | 0.0 | 0.00 | 0.00 | 0.00 | 84 | 1056.7 |
| 20260504035837 | 3 | 202 | 0.0 | 0.0 | 0.00 | 0.00 | 0.00 | 83 | 1056.6 |
| 20260504034838 | 3 | 202 | 0.0 | 0.0 | 0.00 | 0.00 | 0.00 | 83 | 1056.6 |
| 20260504033838 | 3 | 202 | 0.0 | 0.0 | 0.00 | 0.00 | 0.00 | 82 | 1056.4 |
| 20260504032936 | 3 | 202 | 0.0 | 0.0 | 0.00 | 0.00 | 0.00 | 81 | 1056.4 |
| 20260504031937 | 3 | 202 | 0.0 | 0.0 | 0.00 | 0.00 | 0.00 | 81 | 1056.2 |
| 20260504031836 | 3 | 202 | 0.0 | 0.0 | 0.00 | 0.00 | 0.00 | 81 | 1056.2 |
| 20260504030838 | 3 | 202 | 0.0 | 0.0 | 0.00 | 0.00 | 0.00 | 80 | 1056.3 |
| 20260504025938 | 3 | 202 | 0.0 | 0.0 | 0.00 | 0.00 | 0.00 | 79 | 1056.3 |
| 20260504025838 | 3 | 202 | 0.0 | 0.0 | 0.00 | 0.00 | 0.00 | 80 | 1056.3 |
| 20260504024838 | 4 | 202 | 0.0 | 0.0 | 0.00 | 0.00 | 0.00 | 78 | 1056.3 |
| 20260504024738 | 4 | 202 | 0.0 | 0.0 | 0.00 | 0.00 | 0.00 | 79 | 1056.2 |
| 20260504022739 | 5 | 202 | 0.0 | 0.0 | 0.00 | 0.00 | 0.00 | 76 | 1056.2 |
| 20260504015835 | 6 | 202 | 0.0 | 0.0 | 0.00 | 0.00 | 0.00 | 73 | 1056.3 |
| 20260504014837 | 6 | 202 | 0.0 | 0.0 | 0.00 | 0.00 | 0.00 | 71 | 1056.1 |
| 20260504013936 | 6 | 202 | 0.0 | 0.0 | 0.00 | 0.00 | 0.00 | 69 | 1056.2 |
| 20260504012838 | 7 | 202 | 0.0 | 0.0 | 0.00 | 0.00 | 0.00 | 67 | 1056.1 |
| 20260504011837 | 7 | 202 | 0.0 | 0.0 | 0.00 | 0.00 | 0.00 | 64 | 1056.0 |
| 20260504010837 | 7 | 202 | 0.0 | 1.6 | 0.00 | 0.00 | 0.00 | 63 | 1055.9 |